Weather History for Sedalia, MO

Change the Weather History Date:

Wednesday, December 12, 2012

  Actual Average Record
Temperature  
Mean Temperature 39 °F 36 °F  
Max Temperature 51 °F 44 °F 65 °F (1990)
Min Temperature 26 °F 27 °F -10 °F (1962)
Degree Days  
Heating Degree Days 26 30  
Month to date heating degree days 231 331  
Since 1 July heating degree days 1108 1176  
Cooling Degree Days 0 0  
Month to date cooling degree days 0 0  
Year to date cooling degree days 2111 1490  
Moisture  
Dew Point 18 °F    
Average Humidity 50    
Maximum Humidity 75    
Minimum Humidity 24    
Precipitation  
Precipitation 0.00 in 0.06 in 1.47 in (1972)
Month to date precipitation 0.11 0.86  
Year to date precipitation 29.53 39.65  
Sea Level Pressure  
Sea Level Pressure 30.23 in    
Wind  
Wind Speed 11 mph (SSW)    
Max Wind Speed 20 mph    
Max Gust Speed 25 mph    
Visibility 10 miles    
Events      
T = Trace of Precipitation, MM = Missing Value Source: NWS Daily Summary

Daily Weather History Graph

Daily Weather History Graph

Search for Another Location

Airport:

Trip Planner

Search our weather history database for the weather conditions in past years. The results will help you decide how hot, cold, wet, or windy it might be!

Date:

Astronomy

Dec. 12, 2012 Rise Set
Actual Time 7:21 AM CST 4:51 PM CST
Civil Twilight 6:51 AM CST 5:21 PM CST
Nautical Twilight 6:18 AM CST 5:54 PM CST
Astronomical Twilight 5:46 AM CST 6:27 PM CST
Moon 6:26 AM CST (12/12) 4:29 PM CST (12/12)
Length of Visible Light 10h 29m
Length of Day
9h 29m
Waning Crescent, 1% of the Moon is Illuminated
Dec 12
Waning Crescent
Dec 13
New
Dec 19
First Quarter
Dec 28
Full
Jan 4
Last Quarter

Hourly Weather History & Observations

Time (CST) Temp. Windchill Dew Point Humidity Pressure Visibility Wind Dir Wind Speed Gust Speed Precip Events Conditions
12:53 AM 30.0 °F 22.4 °F 19.9 °F 66% 30.20 in 10.0 mi SSW 8.1 mph - N/A   Clear
1:53 AM 26.1 °F 17.6 °F 19.0 °F 75% 30.20 in 10.0 mi South 8.1 mph - N/A   Clear
2:53 AM 28.0 °F 20.0 °F 19.0 °F 69% 30.21 in 10.0 mi South 8.1 mph - N/A   Clear
3:53 AM 28.0 °F 19.3 °F 19.0 °F 69% 30.20 in 10.0 mi South 9.2 mph - N/A   Clear
4:53 AM 30.0 °F 21.1 °F 18.0 °F 61% 30.21 in 10.0 mi SSW 10.4 mph - N/A   Clear
5:53 AM 30.0 °F 21.1 °F 18.0 °F 61% 30.23 in 10.0 mi SSW 10.4 mph - N/A   Clear
6:53 AM 30.9 °F 22.2 °F 18.0 °F 59% 30.25 in 10.0 mi SSW 10.4 mph - N/A   Clear
7:53 AM 30.9 °F 22.2 °F 18.0 °F 59% 30.25 in 10.0 mi SSW 10.4 mph - N/A   Clear
8:53 AM 36.0 °F 28.5 °F 18.0 °F 48% 30.27 in 10.0 mi SSW 10.4 mph - N/A   Clear
9:53 AM 41.0 °F 33.5 °F 18.0 °F 40% 30.29 in 10.0 mi SSW 13.8 mph - N/A   Clear
10:53 AM 45.0 °F 38.9 °F 19.0 °F 36% 30.30 in 10.0 mi SSW 12.7 mph - N/A   Clear
11:53 AM 46.9 °F - 18.0 °F 32% 30.27 in 10.0 mi SW 16.1 mph 21.9 mph N/A   Clear
12:53 PM 48.9 °F - 16.0 °F 27% 30.25 in 10.0 mi SSW 16.1 mph - N/A   Clear
1:53 PM 51.1 °F - 17.1 °F 26% 30.22 in 10.0 mi South 11.5 mph - N/A   Clear
2:53 PM 50.0 °F - 15.1 °F 25% 30.22 in 10.0 mi SSW 10.4 mph 21.9 mph N/A   Clear
3:53 PM 48.9 °F - 17.1 °F 28% 30.22 in 10.0 mi South 11.5 mph - N/A   Clear
4:53 PM 43.0 °F 38.2 °F 18.0 °F 37% 30.21 in 10.0 mi South 8.1 mph - N/A   Clear
5:53 PM 37.9 °F 32.7 °F 18.0 °F 45% 30.21 in 10.0 mi South 6.9 mph - N/A   Clear
6:53 PM 35.1 °F 27.9 °F 19.0 °F 52% 30.21 in 10.0 mi SSE 9.2 mph - N/A   Clear
7:53 PM 35.1 °F 27.9 °F 18.0 °F 50% 30.20 in 10.0 mi SSE 9.2 mph - N/A   Clear
8:53 PM 36.0 °F 29.6 °F 18.0 °F 48% 30.21 in 10.0 mi South 8.1 mph - N/A   Clear
9:53 PM 36.0 °F 28.0 °F 18.0 °F 48% 30.20 in 10.0 mi South 11.5 mph - N/A   Clear
10:53 PM 37.0 °F 29.3 °F 18.0 °F 46% 30.23 in 10.0 mi South 11.5 mph - N/A   Clear
11:53 PM 37.9 °F 30.9 °F 17.1 °F 43% 30.23 in 10.0 mi South 10.4 mph - N/A   Clear